Regional Weather Roundup
Issued by NWS

Home | Current Version | Previous Version | Graphics & Text | Print | Product List | Glossary On
Versions: 1 2 3 4 5 6 7 8 9 10 11 12 13 14 15 16 17 18 19 20 21 22 23 24 25 26 27 28 29 30 31 32 33 34 35 36 37 38 39 40 41 42 43 44 45 46 47 48 49 50
000
ASUS45 KBOU 270307
RWRCO

WEATHER ROUNDUP FOR COLORADO
NATIONAL WEATHER SERVICE DENVER/BOULDER CO
900 PM MDT TUE AUG 26 2014

NOTE: "FAIR" INDICATES FEW OR NO CLOUDS BELOW 12000 FEET WITH NO
SIGNIFICANT WEATHER AND/OR OBSTRUCTIONS TO VISIBILITY.

COZ001>005-013-030-031-270400-
...NORTHWEST COLORADO...

CITY           SKY/WX    TMP DP  RH WIND       PRES   REMARKS
CRAIG          MOCLDY    63  47  55 VRB6      30.24R
HAYDEN         CLOUDY    57  46  67 E9        30.27S
MEEKER         CLOUDY    60  53  77 E3        30.26R
MOUNT WERNER   NOT AVBL
STEAMBOAT SPGS MOCLDY    56  49  76 CALM      30.31R
WALDEN         CLOUDY    54  41  62 E5        30.37S
$$

COZ006>008-011-270400-
...WEST CENTRAL VALLEYS...

CITY           SKY/WX    TMP DP  RH WIND       PRES   REMARKS
GRAND JUNCTION CLOUDY    62  57  83 NE6       30.20R
MONTROSE       RAIN      60  55  83 S7        30.29R
EAGLE          CLOUDY    63  52  67 CALM      30.32R
RIFLE          CLOUDY    64  57  78 E3        30.21R
DELTA          RAIN      67  55  66 SE7       30.23R
NUCLA          RAIN      55  54  94 CALM      30.35R
$$

COZ017>023-064>068-270400-
...SOUTHWEST COLORADO...

CITY           SKY/WX    TMP DP  RH WIND       PRES   REMARKS
DURANGO        LGT RAIN  58  55  90 W10       30.29R
CORTEZ         HVY RAIN  56  54  93 W6        30.34R FOG
PAGOSA SPRINGS RAIN      61  48  61 CALM      30.34R
TELLURIDE      LGT RAIN  48  48 100 CALM      30.44S
WOLF CREEK PAS CLOUDY    43  39  87 SW12      30.59S
$$

COZ009-010-012-014-032>034-037-058>063-270400-
...CENTRAL COLORADO...

CITY           SKY/WX    TMP DP  RH WIND       PRES   REMARKS
ASPEN          CLOUDY    54  50  86 S3        30.36R
BUENA VISTA    CLOUDY    55  48  79 S3        30.40R
COPPER MTN     RAIN      45  39  81 NE3       30.62S VSB<1/4
BERTHOUD PASS  LGT RAIN  34  34 100 SE13      30.67S WCI  25
COTTONWOOD PAS LGT RAIN  52  46  82 CALM      30.50R
GUNNISON       CLOUDY    55  48  76 SE3       30.39R
KREMMLING      CLOUDY    54  46  76 NE3       30.38R
LEADVILLE      CLOUDY    47  44  90 S5        30.48R
MONARCH PASS   FOG       43  41  93 SE5       30.71R VSB<1/4
SALIDA         CLOUDY    57  53  87 CALM      30.44R
SUNLIGHT       CLOUDY    46  41  81 NE5       30.54S
WILKERSON PASS NOT AVBL
$$

COZ069>075-270400-
...SAN LUIS VALLEY/SANGRE DE CRISTO MOUNTAINS...

CITY           SKY/WX    TMP DP  RH WIND       PRES   REMARKS
ALAMOSA        MOCLDY    55  51  86 S5        30.34S
LA VETA PASS   NOT AVBL
SAGUACHE       MOCLDY    54  50  87 SE6       30.40R
$$

COZ035-036-038>040-270400-
...NORTHERN COLORADO FRONT RANGE...

CITY           SKY/WX    TMP DP  RH WIND       PRES   REMARKS
DENVER INTL AP CLOUDY    65  59  81 W10       30.23R
DMNS CITY PARK   N/A     61  56  85 SW6G13    30.23F
AURORA         CLOUDY    63  57  80 W6        30.26R
FRONT RANGE AP NOT AVBL
ERIE MUNI ARPT CLOUDY    65  51  62 S5        30.21S
BOULDER MUN AP CLOUDY    61  54  77 W9G18     30.22S
CENTENNIAL     CLOUDY    61  53  75 W10       30.27R
BROOMFIELD     CLOUDY    64  52  63 SW8       30.25S
FORT COLLINS   CLOUDY    68  54  60 E3        30.19S
LONGMONT       LGT RAIN  65  55  67 W7        30.22S
$$

COZ041-046-047-076>085-087-088-270400-
...PIKES PEAK/PALMER DIVIDE AND SOUTHERN FOOTHILLS...

CITY           SKY/WX    TMP DP  RH WIND       PRES   REMARKS
COLO. SPRINGS  CLOUDY    65  57  75 E5        30.30R
A. F. ACADEMY  CLOUDY    63  54  71 VRB1      30.30R
ELLICOTT       CLOUDY    63  58  83 S7        30.28R
FALCON         CLOUDY    61  57  87 S3        30.34R
FORT CARSON    CLOUDY    67  58  73 SE9       30.27R
LIMON          CLOUDY    65  60  84 SW7       30.23R
MONUMENT HILL  CLOUDY    59  52  77 NW6       30.32S
TRINIDAD       CLOUDY    62  58  86 S6        30.25S
$$

COZ042>045-048>051-090-091-270400-
...NORTHEAST COLORADO...

CITY           SKY/WX    TMP DP  RH WIND       PRES   REMARKS
GREELEY ARPT   CLOUDY    70  55  60 S5        30.19R
AKRON          CLOUDY    69  63  81 E7        30.18R
BURLINGTON     RAIN      64  58  80 S13       30.20R
WRAY             N/A     72  64  74 NE7       30.13R
STERLING       CLOUDY    72  68  88 SE6       30.12S
HOLYOKE        MOCLDY    70  63  78 NE5       30.15R
FORT MORGAN    CLOUDY    65  58  77 NE6       30.17R
$$

COZ086-089-092>099-270400-
...SOUTHEAST COLORADO...

CITY           SKY/WX    TMP DP  RH WIND       PRES   REMARKS
PUEBLO         CLOUDY    70  54  56 E9        30.19R
LA JUNTA       CLOUDY    66  62  87 S6        30.17R
LAMAR          LGT RAIN  66  63  90 SE8       30.16R
SPRINGFIELD      N/A     64  62  93 S18       30.23R
$$


USA.gov is the U.S. government's official web portal to all federal, state and local government web resources and services.